CW2071 Weather Reports


Display with metric or nautical units.
time (UTC)temp
F
wind
direction
speed
MPH
gust
MPH
rain 1hr
in
rain 24hr
in
rain mn
in
humidity
%
barometer
mb
20260504150540 71 281 7.0 11.0 0.00 0.00 0.00 42 1002.7
20260504141022 63 276 5.0 10.0 0.00 0.00 0.00 53 1002.7
20260504140513 62 283 6.0 10.0 0.00 0.00 0.00 56 1002.7
20260504130514 53 223 1.0 4.0 0.00 0.00 0.00 70 1003.3
20260504110526 48 51 2.0 5.0 0.00 0.00 0.00 75 1003.1
20260504100529 47 295 1.0 1.0 0.00 0.00 0.00 78 1003.0
20260504081533 51 344 2.0 2.0 0.00 0.00 0.00 75 1003.6
20260504081026 51 314 1.0 2.0 0.00 0.00 0.00 69 1003.6
20260504080520 51 1 1.0 2.0 0.00 0.00 0.00 72 1003.7
20260504050559 54 331 0.0 2.0 0.00 0.00 0.00 65 1006.4
20260504045525 54 241 0.0 2.0 0.00 0.00 0.00 65 1006.5
20260504045020 54 223 0.0 2.0 0.00 0.00 0.00 65 1006.5
20260504044518 54 161 0.0 2.0 0.00 0.00 0.00 64 1006.5
20260504044037 55 178 1.0 2.0 0.00 0.00 0.00 63 1006.6
20260504043531 55 223 0.0 2.0 0.00 0.00 0.00 65 1006.7
20260504043028 55 152 0.0 2.0 0.00 0.00 0.00 64 1006.7
20260504042524 56 178 0.0 1.0 0.00 0.00 0.00 63 1006.7
20260504042021 56 117 0.0 1.0 0.00 0.00 0.00 63 1006.8
20260504041539 56 124 1.0 2.0 0.00 0.00 0.00 62 1006.9
20260504041035 56 46 0.0 3.0 0.00 0.00 0.00 60 1007.0
20260504040528 57 193 1.0 3.0 0.00 0.00 0.00 60 1006.9
20260504040028 58 201 1.0 3.0 0.00 0.00 0.00 59 1006.9
20260504035544 59 206 2.0 3.0 0.00 0.00 0.00 57 1007.0
20260504035022 60 46 0.0 1.0 0.00 0.00 0.00 55 1006.9
20260504034522 60 1 0.0 2.0 0.00 0.00 0.00 52 1006.9
20260504034038 60 1 1.0 3.0 0.00 0.00 0.00 54 1006.9
20260504033513 60 46 2.0 3.0 0.00 0.00 0.00 54 1007.0
20260504033035 60 46 1.0 2.0 0.00 0.00 0.00 53 1007.1
20260504032602 61 46 1.0 2.0 0.00 0.00 0.00 50 1007.0
20260504032034 61 46 0.0 2.0 0.00 0.00 0.00 50 1007.1
20260504031532 61 46 0.0 1.0 0.00 0.00 0.00 49 1007.1
20260504031028 62 89 0.0 2.0 0.00 0.00 0.00 49 1007.1
20260504030526 62 46 1.0 2.0 0.00 0.00 0.00 49 1007.1
20260504030023 62 117 1.0 2.0 0.00 0.00 0.00 48 1007.1
20260504025520 62 269 1.0 2.0 0.00 0.00 0.00 48 1007.3
20260504025014 62 145 0.0 2.0 0.00 0.00 0.00 47 1007.2
20260504024518 62 63 0.0 2.0 0.00 0.00 0.00 47 1007.2
20260504024059 63 63 0.0 2.0 0.00 0.00 0.00 46 1007.3
20260504023558 63 63 1.0 2.0 0.00 0.00 0.00 46 1007.3
20260504023035 63 46 0.0 1.0 0.00 0.00 0.00 46 1007.4
20260504022530 63 46 1.0 2.0 0.00 0.00 0.00 45 1007.3
20260504022027 63 105 1.0 2.0 0.00 0.00 0.00 45 1007.4
20260504021520 64 124 1.0 1.0 0.00 0.00 0.00 44 1007.4
20260504021040 64 124 1.0 2.0 0.00 0.00 0.00 43 1007.4
20260504020534 64 105 1.0 2.0 0.00 0.00 0.00 42 1007.4
20260504020030 65 135 0.0 2.0 0.00 0.00 0.00 41 1007.5
20260504015524 65 135 1.0 2.0 0.00 0.00 0.00 41 1007.6
20260504015038 66 135 0.0 2.0 0.00 0.00 0.00 40 1007.7
20260504014534 67 72 1.0 1.0 0.00 0.00 0.00 39 1007.7
20260504014050 67 89 1.0 1.0 0.00 0.00 0.00 38 1007.7
20260504013524 68 72 0.0 1.0 0.00 0.00 0.00 37 1007.8
20260504013023 68 28 0.0 2.0 0.00 0.00 0.00 36 1007.8
20260504012521 69 89 0.0 2.0 0.00 0.00 0.00 36 1007.8
20260504012040 69 165 1.0 2.0 0.00 0.00 0.00 35 1007.9
20260504011537 69 135 1.0 2.0 0.00 0.00 0.00 35 1007.9
20260504011029 70 206 1.0 2.0 0.00 0.00 0.00 35 1007.9
20260504010521 70 178 1.0 3.0 0.00 0.00 0.00 35 1008.0
20260504010038 71 152 2.0 4.0 0.00 0.00 0.00 34 1008.0
20260504005534 71 178 2.0 4.0 0.00 0.00 0.00 34 1008.1
20260504005030 72 159 2.0 5.0 0.00 0.00 0.00 34 1008.1
20260504004527 72 165 2.0 5.0 0.00 0.00 0.00 34 1008.1
20260504004023 72 178 2.0 5.0 0.00 0.00 0.00 33 1008.2
20260504003518 72 188 2.0 7.0 0.00 0.00 0.00 33 1008.1
20260504003041 73 178 3.0 7.0 0.00 0.00 0.00 32 1008.2
20260504002514 73 169 3.0 6.0 0.00 0.00 0.00 31 1008.2
20260504002033 74 191 3.0 6.0 0.00 0.00 0.00 30 1008.3
20260504001529 74 206 3.0 6.0 0.00 0.00 0.00 30 1008.4
20260504001023 74 206 2.0 4.0 0.00 0.00 0.00 29 1008.4
20260504000521 75 209 2.0 6.0 0.00 0.00 0.00 29 1008.5
20260504000038 75 206 2.0 6.0 0.00 0.00 0.00 29 1008.5
20260503235534 75 216 3.0 5.0 0.00 0.00 0.00 29 1008.5
20260503235031 76 178 2.0 5.0 0.00 0.00 0.00 29 1008.6
20260503234529 76 178 1.0 6.0 0.00 0.00 0.00 30 1008.6
20260503234024 76 290 3.0 6.0 0.00 0.00 0.00 28 1008.7
20260503233523 75 300 2.0 6.0 0.00 0.00 0.00 29 1008.7
20260503233018 75 269 2.0 6.0 0.00 0.00 0.00 30 1008.7
20260503232538 75 1 3.0 6.0 0.00 0.00 0.00 29 1008.8
20260503232033 76 338 3.0 5.0 0.00 0.00 0.00 28 1008.8
20260503231529 76 349 2.0 5.0 0.00 0.00 0.00 28 1008.9
20260503231025 76 306 2.0 7.0 0.00 0.00 0.00 27 1008.9
20260503230519 76 318 4.0 8.0 0.00 0.00 0.00 27 1008.9
20260503230038 76 344 4.0 10.0 0.00 0.00 0.00 28 1008.9
20260503225555 76 347 2.0 10.0 0.00 0.00 0.00 27 1008.9
20260503225030 75 301 4.0 8.0 0.00 0.00 0.00 30 1008.9
20260503224526 75 290 2.0 9.0 0.00 0.00 0.00 29 1008.9
20260503224018 75 1 4.0 9.0 0.00 0.00 0.00 30 1008.9
20260503223515 76 351 5.0 8.0 0.00 0.00 0.00 30 1008.9
20260503223045 76 331 3.0 7.0 0.00 0.00 0.00 30 1009.0
20260503222522 76 28 2.0 7.0 0.00 0.00 0.00 29 1009.0
20260503222038 77 171 4.0 7.0 0.00 0.00 0.00 28 1009.0
20260503221537 76 201 3.0 7.0 0.00 0.00 0.00 27 1009.0
20260503221032 75 223 2.0 4.0 0.00 0.00 0.00 29 1009.2
20260503220530 75 347 1.0 8.0 0.00 0.00 0.00 29 1009.1
20260503220022 75 1 4.0 8.0 0.00 0.00 0.00 29 1009.4
20260503215515 75 152 2.0 9.0 0.00 0.00 0.00 29 1009.3
20260503215059 74 341 5.0 9.0 0.00 0.00 0.00 30 1009.4
20260503214553 75 82 4.0 10.0 0.00 0.00 0.00 30 1009.4
20260503214026 75 296 4.0 12.0 0.00 0.00 0.00 30 1009.5
20260503213544 76 39 4.0 11.0 0.00 0.00 0.00 29 1009.5
20260503213021 76 146 2.0 8.0 0.00 0.00 0.00 29 1009.5
20260503212537 76 140 3.0 11.0 0.00 0.00 0.00 28 1009.7
20260503212029 77 128 5.0 11.0 0.00 0.00 0.00 27 1009.7
20260503211534 77 311 3.0 8.0 0.00 0.00 0.00 28 1009.8
20260503211034 76 281 3.0 7.0 0.00 0.00 0.00 29 1009.9
20260503210531 75 276 3.0 9.0 0.00 0.00 0.00 31 1010.1
20260503210049 75 1 5.0 11.0 0.00 0.00 0.00 30 1010.1
20260503205524 75 331 6.0 11.0 0.00 0.00 0.00 29 1010.2
20260503205017 76 354 6.0 13.0 0.00 0.00 0.00 29 1010.2
20260503204523 75 325 8.0 13.0 0.00 0.00 0.00 29 1010.2
20260503204041 75 269 5.0 10.0 0.00 0.00 0.00 28 1010.3
20260503203513 75 303 3.0 9.0 0.00 0.00 0.00 29 1010.3
20260503203015 76 306 4.0 12.0 0.00 0.00 0.00 28 1010.3
20260503202532 76 250 7.0 15.0 0.00 0.00 0.00 28 1010.4
20260503202030 75 286 6.0 15.0 0.00 0.00 0.00 29 1010.4
20260503201525 74 279 4.0 9.0 0.00 0.00 0.00 30 1010.4
20260503201043 72 348 3.0 8.0 0.00 0.00 0.00 32 1010.6
20260503200519 72 4 3.0 9.0 0.00 0.00 0.00 34 1010.6
20260503200037 72 331 3.0 12.0 0.00 0.00 0.00 31 1010.6
20260503195531 73 354 6.0 12.0 0.00 0.00 0.00 31 1010.9
20260503195053 73 353 4.0 9.0 0.00 0.00 0.00 31 1010.7
20260503194549 73 137 4.0 11.0 0.00 0.00 0.00 32 1010.9
20260503194025 74 302 4.0 12.0 0.00 0.00 0.00 32 1010.8
20260503193536 74 336 3.0 12.0 0.00 0.00 0.00 31 1010.9
20260503193030 74 296 3.0 8.0 0.00 0.00 0.00 31 1010.9
20260503192523 73 124 3.0 11.0 0.00 0.00 0.00 33 1011.1
20260503192040 72 237 3.0 11.0 0.00 0.00 0.00 31 1011.0
20260503191532 71 15 4.0 10.0 0.00 0.00 0.00 35 1011.2
20260503191030 71 334 3.0 9.0 0.00 0.00 0.00 32 1011.2
20260503190526 72 34 3.0 12.0 0.00 0.00 0.00 30 1011.3
20260503190015 72 46 6.0 12.0 0.00 0.00 0.00 32 1011.2
20260503185540 72 356 6.0 11.0 0.00 0.00 0.00 31 1011.4
20260503185029 71 1 3.0 10.0 0.00 0.00 0.00 34 1011.3
20260503184527 71 72 4.0 10.0 0.00 0.00 0.00 32 1011.4
20260503184022 71 334 5.0 10.0 0.00 0.00 0.00 33 1011.4
20260503183519 71 1 3.0 16.0 0.00 0.00 0.00 32 1011.5
20260503183037 73 20 6.0 16.0 0.00 0.00 0.00 31 1011.6
20260503182531 72 290 3.0 15.0 0.00 0.00 0.00 31 1011.5
20260503182026 72 32 7.0 15.0 0.00 0.00 0.00 32 1011.7
20260503181521 72 296 5.0 9.0 0.00 0.00 0.00 34 1011.8
20260503181036 71 105 4.0 12.0 0.00 0.00 0.00 34 1011.9
20260503180554 71 1 6.0 12.0 0.00 0.00 0.00 35 1011.9
20260503180026 70 331 5.0 10.0 0.00 0.00 0.00 34 1012.0
20260503175521 70 344 5.0 10.0 0.00 0.00 0.00 35 1012.0
20260503175018 70 93 4.0 10.0 0.00 0.00 0.00 34 1012.1
20260503174537 70 112 4.0 8.0 0.00 0.00 0.00 35 1012.2
20260503174033 70 307 4.0 9.0 0.00 0.00 0.00 34 1012.3
20260503173528 71 328 4.0 9.0 0.00 0.00 0.00 34 1012.2
20260503173024 72 331 4.0 9.0 0.00 0.00 0.00 34 1012.3
20260503172539 71 296 5.0 9.0 0.00 0.00 0.00 35 1012.4
20260503172014 70 318 3.0 15.0 0.00 0.00 0.00 37 1012.3
20260503171515 70 293 5.0 15.0 0.00 0.00 0.00 37 1012.4
20260503171032 70 319 5.0 9.0 0.00 0.00 0.00 38 1012.5
20260503170524 69 89 2.0 8.0 0.00 0.00 0.00 36 1012.5